LHX3306 EDDF-EPKK

Flight info

Callsign LHX3306
Flight time 1h 28m
Altitude 31000
Route TOBAK2S TOBAK N858 SWALM T201 TAMEB DCT NEVKO DCT OMELO DCT OMIFU DCT ETUDA DCT SOPAV DCT PADKA
Aircraft B463/M-SDFGIRWY/LB1

Departure

Time 2026-05-06 03:37
Airport Frankfurt Main Airport (EDDF)

Arrival

Time 2026-05-06 05:05
Airport Kraków John Paul II International Airport (EPKK)
Time Latitude Longitude Altitude Speed Heading
2026-05-06 03:17 50.04654 8.56813 362 ft 0 kts 295°
2026-05-06 03:22 50.04653 8.56816 356 ft 2 kts 295°
2026-05-06 03:23 50.04643 8.56852 362 ft 4 kts 295°
2026-05-06 03:23 50.04634 8.56885 358 ft 4 kts 284°
2026-05-06 03:23 50.04638 8.56920 356 ft 4 kts 224°
2026-05-06 03:23 50.04660 8.56939 358 ft 4 kts 203°
2026-05-06 03:24 50.04653 8.56934 363 ft 4 kts 203°
2026-05-06 03:24 50.04627 8.56920 362 ft 4 kts 197°
2026-05-06 03:24 50.04603 8.56910 356 ft 2 kts 193°
2026-05-06 03:24 50.04581 8.56902 357 ft 4 kts 193°
2026-05-06 03:25 50.04555 8.56892 362 ft 4 kts 193°
2026-05-06 03:25 50.04544 8.56888 360 ft 0 kts 193°
2026-05-06 03:31 50.04542 8.56888 359 ft 3 kts 194°
2026-05-06 03:31 50.04524 8.56880 359 ft 0 kts 194°
2026-05-06 03:31 50.04523 8.56880 359 ft 0 kts 194°
2026-05-06 03:31 50.04493 8.56867 359 ft 10 kts 199°
2026-05-06 03:32 50.04430 8.56739 359 ft 22 kts 250°
2026-05-06 03:32 50.04364 8.56458 358 ft 33 kts 251°
2026-05-06 03:32 50.04271 8.56075 357 ft 39 kts 250°
2026-05-06 03:32 50.04182 8.55699 356 ft 35 kts 249°
2026-05-06 03:33 50.04101 8.55361 354 ft 31 kts 249°
2026-05-06 03:33 50.04030 8.55068 355 ft 27 kts 250°
2026-05-06 03:33 50.03968 8.54804 356 ft 25 kts 250°
2026-05-06 03:33 50.03910 8.54559 348 ft 23 kts 249°
2026-05-06 03:34 50.03845 8.54337 348 ft 22 kts 235°
2026-05-06 03:34 50.03779 8.54134 350 ft 20 kts 251°
2026-05-06 03:34 50.03731 8.53938 348 ft 18 kts 249°
2026-05-06 03:34 50.03687 8.53755 348 ft 20 kts 250°
2026-05-06 03:35 50.03632 8.53536 340 ft 23 kts 246°
2026-05-06 03:35 50.03573 8.53290 336 ft 26 kts 250°
2026-05-06 03:35 50.03509 8.53022 335 ft 28 kts 249°
2026-05-06 03:35 50.03428 8.52712 332 ft 34 kts 247°
2026-05-06 03:36 50.03291 8.52593 333 ft 28 kts 179°
2026-05-06 03:36 50.02952 8.52598 335 ft 81 kts 179°
2026-05-06 03:36 50.02149 8.52604 338 ft 144 kts 179°
2026-05-06 03:36 50.01092 8.52676 689 ft 157 kts 179°
2026-05-06 03:37 49.99994 8.52711 1334 ft 159 kts 186°
2026-05-06 03:37 49.98859 8.52937 1923 ft 164 kts 177°
2026-05-06 03:37 49.97813 8.52622 2518 ft 152 kts 223°
2026-05-06 03:37 49.97041 8.51548 3166 ft 149 kts 226°
2026-05-06 03:38 49.96259 8.50392 3634 ft 164 kts 227°
2026-05-06 03:38 49.95385 8.49032 4037 ft 191 kts 228°
2026-05-06 03:38 49.94407 8.47495 4618 ft 209 kts 228°
2026-05-06 03:38 49.93330 8.45784 5056 ft 235 kts 227°
2026-05-06 03:39 49.92137 8.43905 5486 ft 259 kts 226°
2026-05-06 03:39 49.90808 8.41864 6039 ft 276 kts 226°
2026-05-06 03:39 49.89449 8.39783 7140 ft 271 kts 225°
2026-05-06 03:39 49.88105 8.37780 8363 ft 264 kts 225°
2026-05-06 03:40 49.86933 8.35573 9272 ft 269 kts 245°
2026-05-06 03:40 49.86627 8.32709 9995 ft 281 kts 274°
2026-05-06 03:40 49.87305 8.29732 10279 ft 309 kts 300°
2026-05-06 03:40 49.88656 8.27038 10653 ft 323 kts 306°
2026-05-06 03:41 49.90083 8.24280 11070 ft 332 kts 305°
2026-05-06 03:41 49.91524 8.21428 11517 ft 339 kts 307°
2026-05-06 03:41 49.93345 8.19050 12025 ft 350 kts 330°
2026-05-06 03:41 49.95697 8.18085 12735 ft 355 kts 355°
2026-05-06 03:42 49.98138 8.18614 13444 ft 357 kts 16°
2026-05-06 03:42 50.00450 8.20041 13996 ft 358 kts 22°
2026-05-06 03:42 50.02732 8.21622 14472 ft 361 kts 24°
2026-05-06 03:42 50.04999 8.23316 14925 ft 362 kts 25°
2026-05-06 03:43 50.07265 8.25029 15381 ft 363 kts 25°
2026-05-06 03:43 50.09558 8.26744 15695 ft 369 kts 24°
2026-05-06 03:43 50.11893 8.28462 16028 ft 374 kts 24°
2026-05-06 03:43 50.14268 8.30159 16368 ft 378 kts 23°
2026-05-06 03:44 50.16677 8.31849 16726 ft 381 kts 23°
2026-05-06 03:44 50.19112 8.33544 17100 ft 385 kts 23°
2026-05-06 03:44 50.21562 8.35259 17465 ft 387 kts 24°
2026-05-06 03:44 50.23991 8.36989 17844 ft 390 kts 24°
2026-05-06 03:45 50.26450 8.38784 18209 ft 392 kts 26°
2026-05-06 03:45 50.28818 8.40914 18540 ft 394 kts 33°
2026-05-06 03:45 50.31056 8.43401 18868 ft 395 kts 38°
2026-05-06 03:45 50.33199 8.46100 19194 ft 396 kts 40°
2026-05-06 03:46 50.35297 8.48930 19547 ft 397 kts 42°
2026-05-06 03:46 50.37363 8.51806 19900 ft 397 kts 42°
2026-05-06 03:46 50.39419 8.54706 20252 ft 398 kts 43°
2026-05-06 03:46 50.41470 8.57618 20604 ft 398 kts 43°
2026-05-06 03:47 50.43519 8.60537 20950 ft 398 kts 43°
2026-05-06 03:47 50.45561 8.63383 21291 ft 398 kts 41°
2026-05-06 03:47 50.47670 8.66204 21631 ft 398 kts 40°
2026-05-06 03:47 50.49798 8.68986 21974 ft 398 kts 40°
2026-05-06 03:48 50.51933 8.71764 22318 ft 398 kts 40°
2026-05-06 03:48 50.54060 8.74546 22654 ft 398 kts 41°
2026-05-06 03:48 50.56036 8.77574 22995 ft 396 kts 49°
2026-05-06 03:48 50.57745 8.80959 23315 ft 396 kts 55°
2026-05-06 03:49 50.59263 8.84576 23525 ft 397 kts 59°
2026-05-06 03:49 50.60626 8.88216 23726 ft 398 kts 61°
2026-05-06 03:49 50.61103 8.89547 23799 ft 398 kts 62°
2026-05-06 03:49 50.62424 8.93388 24010 ft 399 kts 63°
2026-05-06 03:50 50.63722 8.97258 24218 ft 400 kts 63°
2026-05-06 03:50 50.65038 9.01131 24434 ft 401 kts 63°
2026-05-06 03:50 50.66359 9.05009 24649 ft 402 kts 63°
2026-05-06 03:50 50.67684 9.08891 24860 ft 403 kts 63°
2026-05-06 03:51 50.69014 9.12784 25080 ft 403 kts 63°
2026-05-06 03:51 50.70326 9.16688 25293 ft 403 kts 65°
2026-05-06 03:51 50.71451 9.20735 25503 ft 403 kts 71°
2026-05-06 03:51 50.72350 9.24919 25714 ft 402 kts 75°
2026-05-06 03:52 50.73102 9.29168 25921 ft 402 kts 77°
2026-05-06 03:52 50.73772 9.33453 26131 ft 402 kts 78°
2026-05-06 03:52 50.74415 9.37748 26329 ft 402 kts 78°
2026-05-06 03:52 50.75040 9.42051 26524 ft 403 kts 79°
2026-05-06 03:53 50.75654 9.46366 26719 ft 403 kts 79°
2026-05-06 03:53 50.76281 9.50683 26919 ft 403 kts 79°
2026-05-06 03:53 50.76912 9.55002 27110 ft 404 kts 79°
2026-05-06 03:53 50.77544 9.59324 27311 ft 404 kts 79°
2026-05-06 03:54 50.78177 9.63648 27504 ft 404 kts 79°
2026-05-06 03:54 50.78811 9.67974 27695 ft 404 kts 79°
2026-05-06 03:54 50.79447 9.72304 27883 ft 404 kts 79°
2026-05-06 03:54 50.80082 9.76630 28067 ft 404 kts 79°
2026-05-06 03:55 50.80719 9.80962 28245 ft 405 kts 79°
2026-05-06 03:55 50.81357 9.85297 28430 ft 405 kts 79°
2026-05-06 03:55 50.81780 9.88166 28542 ft 405 kts 79°
2026-05-06 03:55 50.82421 9.92512 28713 ft 405 kts 79°
2026-05-06 03:56 50.83064 9.96846 28856 ft 405 kts 79°
2026-05-06 03:56 50.83706 10.01189 29018 ft 406 kts 80°
2026-05-06 03:56 50.84185 10.05578 29175 ft 404 kts 86°
2026-05-06 03:56 50.84352 10.10007 29335 ft 403 kts 92°
2026-05-06 03:57 50.84294 10.14431 29494 ft 402 kts 95°
2026-05-06 03:57 50.84109 10.18842 29658 ft 401 kts 97°
2026-05-06 03:57 50.83851 10.23232 29804 ft 401 kts 98°
2026-05-06 03:57 50.83566 10.27622 29932 ft 401 kts 98°
2026-05-06 03:58 50.83274 10.32012 30064 ft 401 kts 98°
2026-05-06 03:58 50.82998 10.36405 30183 ft 402 kts 98°
2026-05-06 03:58 50.82728 10.40808 30285 ft 402 kts 98°
2026-05-06 03:58 50.82462 10.45215 30392 ft 403 kts 98°
2026-05-06 03:59 50.82198 10.49633 30493 ft 404 kts 98°
2026-05-06 03:59 50.81935 10.54052 30612 ft 404 kts 98°
2026-05-06 03:59 50.81411 10.62921 30734 ft 407 kts 98°
2026-05-06 04:00 50.80950 10.71919 30756 ft 414 kts 93°
2026-05-06 04:00 50.81373 10.81089 30767 ft 422 kts 85°
2026-05-06 04:01 50.82210 10.90350 30767 ft 428 kts 83°
2026-05-06 04:01 50.83095 10.99723 30761 ft 433 kts 84°
2026-05-06 04:02 50.83930 11.09143 30765 ft 437 kts 84°
2026-05-06 04:02 50.84764 11.18720 30771 ft 441 kts 84°
2026-05-06 04:03 50.85557 11.28377 30778 ft 443 kts 86°
2026-05-06 04:03 50.85862 11.38125 30771 ft 444 kts 91°
2026-05-06 04:04 50.85884 11.47936 30774 ft 447 kts 92°
2026-05-06 04:04 50.85873 11.52793 30774 ft 434 kts 92°
2026-05-06 04:04 50.85857 11.57580 30766 ft 436 kts 92°
2026-05-06 04:05 50.85839 11.67212 30766 ft 439 kts 91°
2026-05-06 04:05 50.85866 11.76679 30764 ft 411 kts 92°
2026-05-06 04:06 50.85862 11.81096 30753 ft 392 kts 92°
2026-05-06 04:06 50.85859 11.85319 30732 ft 376 kts 92°
2026-05-06 04:06 50.85860 11.89381 30727 ft 362 kts 92°
2026-05-06 04:06 50.85864 11.93311 30715 ft 358 kts 92°
2026-05-06 04:07 50.85868 12.01251 30742 ft 364 kts 92°
2026-05-06 04:07 50.85831 12.09344 30764 ft 371 kts 92°
2026-05-06 04:08 50.85815 12.17588 30779 ft 378 kts 92°
2026-05-06 04:08 50.85796 12.25999 30769 ft 386 kts 93°
2026-05-06 04:09 50.85750 12.34574 30760 ft 393 kts 93°
2026-05-06 04:09 50.85695 12.43290 30760 ft 400 kts 94°
2026-05-06 04:10 50.85657 12.52170 30763 ft 407 kts 94°
2026-05-06 04:10 50.85580 12.61199 30761 ft 414 kts 94°
2026-05-06 04:11 50.85531 12.70375 30762 ft 420 kts 94°
2026-05-06 04:11 50.85444 12.79689 30737 ft 426 kts 95°
2026-05-06 04:12 50.85380 12.89132 30759 ft 432 kts 96°
2026-05-06 04:12 50.85257 12.98621 30761 ft 437 kts 96°
2026-05-06 04:13 50.85142 13.08345 30763 ft 441 kts 96°
2026-05-06 04:13 50.85022 13.18020 30765 ft 445 kts 96°
2026-05-06 04:14 50.84901 13.27781 30739 ft 445 kts 96°
2026-05-06 04:14 50.84791 13.37516 30754 ft 437 kts 96°
2026-05-06 04:15 50.84668 13.47167 30756 ft 439 kts 97°
2026-05-06 04:15 50.84535 13.56885 30760 ft 443 kts 97°
2026-05-06 04:16 50.84394 13.66642 30761 ft 441 kts 97°
2026-05-06 04:16 50.84243 13.76385 30753 ft 445 kts 97°
2026-05-06 04:17 50.84063 13.86103 30760 ft 442 kts 97°
2026-05-06 04:17 50.83757 13.95825 30761 ft 440 kts 105°
2026-05-06 04:18 50.83016 14.00414 30768 ft 422 kts 116°
2026-05-06 04:18 50.81856 14.04655 30766 ft 419 kts 122°
2026-05-06 04:18 50.78941 14.12600 30766 ft 419 kts 128°
2026-05-06 04:19 50.75763 14.20345 30735 ft 421 kts 128°
2026-05-06 04:19 50.72527 14.28082 30770 ft 418 kts 128°
2026-05-06 04:20 50.69347 14.35806 30772 ft 422 kts 127°
2026-05-06 04:20 50.66179 14.43626 30771 ft 425 kts 128°
2026-05-06 04:21 50.62976 14.51395 30786 ft 420 kts 128°
2026-05-06 04:21 50.59800 14.59167 30764 ft 424 kts 127°
2026-05-06 04:22 50.56592 14.66981 30782 ft 423 kts 127°
2026-05-06 04:23 50.51808 14.78583 30786 ft 424 kts 128°
2026-05-06 04:23 50.48592 14.86345 30788 ft 420 kts 127°
2026-05-06 04:24 50.45374 14.94048 30791 ft 424 kts 127°
2026-05-06 04:24 50.42147 15.01838 30788 ft 425 kts 127°
2026-05-06 04:25 50.38906 15.09547 30789 ft 425 kts 127°
2026-05-06 04:25 50.35682 15.17256 30790 ft 419 kts 128°
2026-05-06 04:26 50.32451 15.24900 30798 ft 423 kts 128°
2026-05-06 04:26 50.29169 15.32600 30800 ft 428 kts 128°
2026-05-06 04:27 50.25881 15.40411 30788 ft 432 kts 128°
2026-05-06 04:27 50.22606 15.48164 30793 ft 427 kts 128°
2026-05-06 04:28 50.19313 15.55933 30800 ft 431 kts 128°
2026-05-06 04:28 50.16032 15.63630 30796 ft 423 kts 129°
2026-05-06 04:29 50.12739 15.71286 30803 ft 427 kts 128°
2026-05-06 04:29 50.09426 15.79019 30794 ft 431 kts 129°
2026-05-06 04:30 50.06048 15.86762 30806 ft 431 kts 129°
2026-05-06 04:30 50.02935 15.94811 30737 ft 443 kts 117°
2026-05-06 04:30 50.02031 15.99439 30243 ft 443 kts 105°
2026-05-06 04:31 50.01628 16.04058 29642 ft 420 kts 99°
2026-05-06 04:31 50.01474 16.08496 28951 ft 403 kts 96°
2026-05-06 04:31 50.01432 16.12765 28249 ft 388 kts 95°
2026-05-06 04:31 50.01428 16.16891 27510 ft 376 kts 94°
2026-05-06 04:32 50.01436 16.20902 26810 ft 366 kts 94°
2026-05-06 04:32 50.01444 16.24806 26132 ft 357 kts 94°
2026-05-06 04:32 50.01450 16.28628 25479 ft 350 kts 94°
2026-05-06 04:32 50.01450 16.32385 24842 ft 344 kts 95°
2026-05-06 04:33 50.01427 16.36071 24213 ft 339 kts 95°
2026-05-06 04:33 50.01391 16.39714 23605 ft 335 kts 95°
2026-05-06 04:33 50.01363 16.43316 22951 ft 331 kts 94°
2026-05-06 04:33 50.01339 16.46884 22271 ft 334 kts 94°
2026-05-06 04:34 50.01296 16.50628 21609 ft 357 kts 95°
2026-05-06 04:34 50.01166 16.54587 21052 ft 376 kts 97°
2026-05-06 04:34 50.00989 16.58729 20556 ft 392 kts 97°
2026-05-06 04:34 50.00784 16.63036 20082 ft 407 kts 96°
2026-05-06 04:35 50.00553 16.67494 19665 ft 421 kts 97°
2026-05-06 04:35 50.00305 16.72096 19272 ft 434 kts 97°
2026-05-06 04:35 50.00069 16.76847 18892 ft 447 kts 96°
2026-05-06 04:35 49.99827 16.81724 18544 ft 451 kts 96°
2026-05-06 04:36 49.99610 16.86288 18186 ft 398 kts 97°
2026-05-06 04:36 49.99417 16.90423 17680 ft 384 kts 97°
2026-05-06 04:36 49.99191 16.94649 17173 ft 400 kts 97°
2026-05-06 04:36 49.98961 16.99037 16725 ft 415 kts 97°
2026-05-06 04:37 49.98752 17.03378 16323 ft 388 kts 97°
2026-05-06 04:37 49.98617 17.06093 16040 ft 373 kts 97°
2026-05-06 04:37 49.98413 17.10015 15562 ft 356 kts 97°
2026-05-06 04:37 49.98213 17.13774 15097 ft 343 kts 97°
2026-05-06 04:38 49.98018 17.17415 14633 ft 333 kts 97°
2026-05-06 04:38 49.97829 17.20958 14178 ft 326 kts 97°
2026-05-06 04:38 49.97645 17.24434 13732 ft 320 kts 97°
2026-05-06 04:38 49.97462 17.27850 13238 ft 315 kts 97°
2026-05-06 04:39 49.97284 17.31230 12727 ft 312 kts 97°
2026-05-06 04:39 49.97107 17.34579 12245 ft 310 kts 97°
2026-05-06 04:39 49.96929 17.37902 11761 ft 308 kts 97°
2026-05-06 04:39 49.96753 17.41206 11297 ft 306 kts 98°
2026-05-06 04:40 49.96577 17.44493 10847 ft 305 kts 97°
2026-05-06 04:40 49.96405 17.47769 10400 ft 304 kts 97°
2026-05-06 04:40 49.96231 17.51025 10019 ft 301 kts 97°
2026-05-06 04:40 49.96059 17.54244 9857 ft 297 kts 98°
2026-05-06 04:41 49.95863 17.57453 9818 ft 297 kts 97°
2026-05-06 04:41 49.95678 17.60635 9811 ft 296 kts 97°
2026-05-06 04:41 49.95502 17.63806 9810 ft 294 kts 97°
2026-05-06 04:41 49.95328 17.66966 9807 ft 293 kts 96°
2026-05-06 04:42 49.95156 17.70116 9803 ft 292 kts 97°
2026-05-06 04:42 49.94972 17.73253 9803 ft 291 kts 97°
2026-05-06 04:42 49.94782 17.76377 9806 ft 291 kts 97°
2026-05-06 04:42 49.94604 17.79500 9806 ft 290 kts 97°
2026-05-06 04:43 49.94421 17.82619 9809 ft 290 kts 97°
2026-05-06 04:43 49.94229 17.85729 9812 ft 290 kts 97°
2026-05-06 04:43 49.94097 17.88846 9817 ft 291 kts 90°
2026-05-06 04:43 49.94240 17.92035 9812 ft 301 kts 85°
2026-05-06 04:44 49.94467 17.95314 9820 ft 309 kts 84°
2026-05-06 04:44 49.94714 17.98672 9823 ft 317 kts 85°
2026-05-06 04:44 49.94960 18.02112 9826 ft 323 kts 85°
2026-05-06 04:44 49.95198 18.05611 9825 ft 329 kts 85°
2026-05-06 04:45 49.95421 18.09183 9823 ft 334 kts 85°
2026-05-06 04:45 49.95643 18.12803 9822 ft 339 kts 86°
2026-05-06 04:45 49.95840 18.16471 9817 ft 343 kts 86°
2026-05-06 04:45 49.96029 18.20180 9816 ft 346 kts 86°
2026-05-06 04:46 49.96216 18.23921 9808 ft 349 kts 86°
2026-05-06 04:46 49.96401 18.27642 9806 ft 352 kts 86°
2026-05-06 04:46 49.96604 18.31436 9805 ft 354 kts 86°
2026-05-06 04:46 49.96819 18.35253 9801 ft 356 kts 86°
2026-05-06 04:47 49.97014 18.39093 9805 ft 357 kts 86°
2026-05-06 04:47 49.97201 18.42953 9801 ft 359 kts 87°
2026-05-06 04:47 49.97388 18.46827 9803 ft 361 kts 86°
2026-05-06 04:47 49.97586 18.50718 9804 ft 362 kts 86°
2026-05-06 04:48 49.97786 18.54622 9787 ft 363 kts 86°
2026-05-06 04:48 49.97984 18.58547 9795 ft 365 kts 87°
2026-05-06 04:48 49.98179 18.62476 9792 ft 366 kts 87°
2026-05-06 04:48 49.98378 18.66422 9795 ft 367 kts 87°
2026-05-06 04:49 49.98573 18.70383 9796 ft 368 kts 87°
2026-05-06 04:49 49.98768 18.74356 9797 ft 369 kts 87°
2026-05-06 04:49 49.98963 18.78334 9800 ft 370 kts 86°
2026-05-06 04:49 49.99159 18.82325 9796 ft 371 kts 87°
2026-05-06 04:50 49.99352 18.86313 9799 ft 361 kts 87°
2026-05-06 04:50 49.99546 18.90188 9793 ft 361 kts 86°
2026-05-06 04:50 49.99739 18.94082 9789 ft 362 kts 87°
2026-05-06 04:50 49.99926 18.97988 9789 ft 363 kts 87°
2026-05-06 04:51 50.00091 19.01891 9792 ft 363 kts 88°
2026-05-06 04:51 50.00262 19.05810 9792 ft 364 kts 88°
2026-05-06 04:51 50.00437 19.09741 9793 ft 365 kts 88°
2026-05-06 04:51 50.00612 19.13689 9792 ft 367 kts 88°
2026-05-06 04:52 50.00786 19.17652 9794 ft 368 kts 88°
2026-05-06 04:52 50.00960 19.21615 9799 ft 363 kts 88°
2026-05-06 04:52 50.01130 19.25442 9789 ft 348 kts 88°
2026-05-06 04:52 50.01298 19.29136 9784 ft 337 kts 88°
2026-05-06 04:53 50.01460 19.32726 9775 ft 329 kts 88°
2026-05-06 04:53 50.01623 19.36232 9772 ft 324 kts 88°
2026-05-06 04:53 50.01784 19.39761 9775 ft 330 kts 88°
2026-05-06 04:53 50.01929 19.43352 9782 ft 335 kts 89°
2026-05-06 04:54 50.02068 19.46993 9791 ft 340 kts 88°
2026-05-06 04:54 50.02227 19.50680 9795 ft 344 kts 88°
2026-05-06 04:54 50.02387 19.54405 9794 ft 347 kts 89°
2026-05-06 04:54 50.02539 19.58165 9804 ft 350 kts 89°
2026-05-06 04:55 50.02689 19.61958 9798 ft 352 kts 89°
2026-05-06 04:55 50.02836 19.65776 9797 ft 355 kts 89°
2026-05-06 04:55 50.02982 19.69611 9809 ft 357 kts 89°
2026-05-06 04:55 50.03125 19.73469 9809 ft 358 kts 89°
2026-05-06 04:56 50.03270 19.77331 9723 ft 347 kts 89°
2026-05-06 04:56 50.03419 19.80891 9228 ft 316 kts 89°
2026-05-06 04:56 50.03553 19.84196 8694 ft 298 kts 89°
2026-05-06 04:56 50.03686 19.87349 8149 ft 288 kts 89°
2026-05-06 04:57 50.03812 19.90419 7618 ft 282 kts 89°
2026-05-06 04:57 50.03932 19.93441 7104 ft 279 kts 89°
2026-05-06 04:57 50.04052 19.96439 6604 ft 276 kts 89°
2026-05-06 04:57 50.04165 19.99415 6110 ft 275 kts 89°
2026-05-06 04:58 50.04281 20.02378 5585 ft 274 kts 91°
2026-05-06 04:58 50.04403 20.05333 5089 ft 273 kts 92°
2026-05-06 04:58 50.04683 20.08255 4583 ft 278 kts 73°
2026-05-06 04:58 50.05706 20.10776 4301 ft 273 kts 43°
2026-05-06 04:59 50.07253 20.12178 4215 ft 241 kts 11°
2026-05-06 04:59 50.08787 20.12159 4153 ft 209 kts 334°
2026-05-06 04:59 50.09845 20.10957 4160 ft 172 kts 293°
2026-05-06 04:59 50.10126 20.09376 4097 ft 140 kts 270°
2026-05-06 05:00 50.10343 20.07952 3966 ft 132 kts 275°
2026-05-06 05:00 50.10546 20.06583 3831 ft 126 kts 268°
2026-05-06 05:00 50.10605 20.05223 3728 ft 125 kts 263°
2026-05-06 05:00 50.10624 20.03884 3650 ft 122 kts 261°
2026-05-06 05:01 50.10596 20.02575 3556 ft 120 kts 259°
2026-05-06 05:01 50.10536 20.01268 3421 ft 122 kts 258°
2026-05-06 05:01 50.10459 19.99940 3282 ft 124 kts 258°
2026-05-06 05:01 50.10374 19.98589 3124 ft 127 kts 259°
2026-05-06 05:02 50.10282 19.97213 2963 ft 129 kts 258°
2026-05-06 05:02 50.10173 19.95845 2844 ft 129 kts 256°
2026-05-06 05:02 50.10011 19.94451 2669 ft 132 kts 254°
2026-05-06 05:02 50.09810 19.93037 2483 ft 135 kts 253°
2026-05-06 05:03 50.09602 19.91606 2306 ft 137 kts 253°
2026-05-06 05:03 50.09391 19.90148 2119 ft 139 kts 255°
2026-05-06 05:03 50.09175 19.88662 1946 ft 142 kts 256°
2026-05-06 05:03 50.08950 19.87134 1755 ft 146 kts 257°
2026-05-06 05:04 50.08742 19.85579 1545 ft 147 kts 258°
2026-05-06 05:04 50.08532 19.84040 1358 ft 143 kts 258°
2026-05-06 05:04 50.08334 19.82531 1154 ft 143 kts 258°
2026-05-06 05:04 50.08128 19.81013 987 ft 145 kts 258°
2026-05-06 05:05 50.07908 19.79474 813 ft 139 kts 258°
2026-05-06 05:05 50.07721 19.78140 799 ft 109 kts 258°
2026-05-06 05:05 50.07607 19.77331 800 ft 43 kts 258°
2026-05-06 05:05 50.07562 19.77007 802 ft 27 kts 258°
2026-05-06 05:06 50.07477 19.76853 801 ft 17 kts 176°
2026-05-06 05:06 50.07368 19.76889 799 ft 15 kts 169°
2026-05-06 05:06 50.07312 19.76990 799 ft 15 kts 82°
2026-05-06 05:06 50.07336 19.77172 799 ft 21 kts 77°
2026-05-06 05:07 50.07377 19.77458 799 ft 34 kts 78°
2026-05-06 05:07 50.07425 19.77806 799 ft 31 kts 78°
2026-05-06 05:07 50.07473 19.78157 799 ft 33 kts 78°
2026-05-06 05:07 50.07523 19.78484 800 ft 29 kts 77°
2026-05-06 05:08 50.07561 19.78782 800 ft 28 kts 78°
2026-05-06 05:08 50.07604 19.79086 800 ft 29 kts 77°
2026-05-06 05:08 50.07647 19.79397 800 ft 30 kts 76°
2026-05-06 05:08 50.07687 19.79684 800 ft 20 kts 78°
2026-05-06 05:09 50.07683 19.79874 800 ft 13 kts 158°
2026-05-06 05:09 50.07586 19.79908 800 ft 15 kts 167°
2026-05-06 05:09 50.07479 19.79944 800 ft 16 kts 168°
2026-05-06 05:09 50.07397 19.80020 800 ft 9 kts 96°
2026-05-06 05:10 50.07372 19.80094 800 ft 8 kts 168°
2026-05-06 05:10 50.07331 19.80104 800 ft 3 kts 168°
2026-05-06 05:10 50.07330 19.80105 800 ft 0 kts 168°